Flag for U.S.A. Weather past 2 weeks in Houston, Texas, U.S.A.

Now
95 °F

Partly sunny.


Feels Like: 101 °F
Forecast: 78 / 96 °F
Wind: 9 mph from Southwest

Location: Houston Hobby Airport

Current Time: Aug 22, 2014 at 3:07:35 PM

Latest Report: Aug 22, 2014 at 1:53 PM


Visibility: 10 mi

Pressure: 30.06 "Hg

Humidity: 44%

Dew point: 70 °F

Location of HoustonLocation

Historic Weather in Houston — Graph

°F

Houston temperature yesterday

Maximum temperature yesterday: 95 °F (at 2:53 PM)
Minimum temperature yesterday: 79 °F (at 2:53 AM)
Average temperature yesterday: 85 °F

Past Weeks' High & Low Weather Summary

 TemperatureHumidityPressure
High97 °F (Aug 11, 3:53 PM)94% (Aug 8, 6:53 AM)30.10 "Hg (Aug 8, 6:53 AM)
Low75 °F (Aug 11, 10:53 PM)38% (Aug 12, 3:53 PM)29.88 "Hg (Aug 7, 6:53 PM)
Average85 °F71%29.99 "Hg
* Reported Aug 7 1:53 PM — Aug 22 1:53 PM, Houston, Weather by CustomWeather, © 2014

Note: Actual official high and low records may vary slightly from our data, if they occured in-between our weather recording intervals... More about our weather records

Advertising

Houston weather history for previous 24 hours

 ConditionsComfort  
Time TempWeatherWind HumidityBarometerVisibility
1:53 PM
Aug 22
95 °FPartly sunny.9 mph44%30.06 "Hg10 mi
12:53 PM92 °FScattered clouds.3 mph51%30.07 "Hg10 mi
11:53 AM91 °FScattered clouds.5 mph56%30.09 "Hg10 mi
10:53 AM89 °FScattered clouds.7 mph63%30.10 "Hg10 mi
9:53 AM86 °FScattered clouds.6 mph72%30.09 "Hg10 mi
8:53 AM83 °FScattered clouds.No wind82%30.09 "Hg10 mi
7:53 AM80 °FPassing clouds.No wind87%30.08 "Hg10 mi
6:53 AM77 °FClear.No wind94%30.07 "Hg10 mi
5:53 AM77 °FPassing clouds.No wind94%30.06 "Hg10 mi
4:53 AM78 °FClear.5 mph90%30.06 "Hg10 mi
3:53 AM78 °FPassing clouds.6 mph90%30.05 "Hg10 mi
2:53 AM79 °FClear.6 mph88%30.06 "Hg10 mi
1:53 AM80 °FPassing clouds.6 mph85%30.06 "Hg10 mi
12:53 AM80 °FPassing clouds.6 mph85%30.06 "Hg10 mi
11:53 PM
Aug 21
80 °FPassing clouds.6 mph85%30.07 "Hg10 mi
10:53 PM81 °FPassing clouds.6 mph82%30.08 "Hg10 mi
9:53 PM82 °FPassing clouds.5 mph79%30.08 "Hg10 mi
8:53 PM83 °FScattered clouds.7 mph74%30.07 "Hg10 mi
7:53 PM86 °FScattered clouds.13 mph65%30.06 "Hg10 mi
6:53 PM88 °FScattered clouds.10 mph61%30.05 "Hg10 mi
5:53 PM91 °FScattered clouds.13 mph56%30.05 "Hg10 mi
4:53 PM94 °FScattered clouds.10 mph48%30.04 "Hg10 mi
3:53 PM95 °FScattered clouds.14 mph44%30.03 "Hg10 mi
Weather by CustomWeather, © 2014

See weather overviewHow to use our weather pages